Location: Clanezzo
(45.7500°N, 9.6000°E)
Time: 04:18:19
(UTC+00:00)

Cosmos 2263 - Pass Details

Date: 12 May 2021
Orbit: 830 x 866 km, 70.9° (Epoch: 18 June)

Event Time Altitude Azimuth Distance (km) Brightness Sun altitude
Exits shadow 22:30:11 53° 116° (ESE) 1,052 4.4 -25.0°
Maximum altitude 22:30:21 53° 110° (ESE) 1,050 4.4 -25.0°
Drops below altitude 10° 22:35:58 10° 35° (NE) 2,517 7.2 -25.2°
Sets 22:38:30 0° 30° (NNE) 3,459 8.1 -25.3°
